User: anonymous   Login
Location: Unspecified
(0.0000°N, 0.0000°E)
Time: 04:44:23
(UTC+02:00)
Language:

Cosmos 1703 - Orbit

View from above orbital plane
View from above orbital plane
View from above satellite
View from above satellite

Ground track
Ground track

The orbit data is extracted from the following two-line orbital elements,

1 16262U 85108A   15142.83962468  .00003284  00000-0  20938-3 0  9990
2 16262 082.4954 271.5465 0008268 017.1742 342.9764 15.08391221604790
Epoch (UTC): 22 May 2015 20:09:03
Eccentricity: 0.0008268
inclination: 82.4954°
perigee height: 535 km
apogee height: 547 km
right ascension of ascending node: 271.5465°
argument of perigee: 17.1742°
revolutions per day: 15.08391221
mean anomaly at epoch: 342.9764°
orbit number at epoch: 60479

The dashed part of the orbit path shows where the satellite is in the earth's shadow,  

DLR